EW1146 Weather Reports


time (UTC)temp
C
wind
direction
speed
KPH
gust
KPH
rain 1hr
cm
rain 24hr
cm
rain mn
cm
humidity
%
barometer
mb
20260906221902 32 340 1.6 11.3 0.00 0.00 0.00 30 1015.0
20260906220327 32 58 4.8 11.3 0.00 0.00 0.00 33 1015.2
20260906214847 32 13 4.8 24.1 0.00 0.00 0.00 34 1015.4
20260906213335 32 229 8.0 12.9 0.00 0.00 0.00 33 1015.7
20260906211856 32 30 8.0 14.5 0.00 0.00 0.00 33 1016.0
20260906210344 32 103 6.4 16.1 0.00 0.00 0.00 31 1016.4
20260906204827 32 127 4.8 16.1 0.00 0.00 0.00 31 1016.5
20260906203407 32 130 0.0 8.0 0.00 0.00 0.00 32 1016.6
20260906201830 31 61 8.0 20.9 0.00 0.00 0.00 35 1016.8
20260906200338 30 58 9.7 14.5 0.00 0.00 0.00 37 1016.9
20260906194835 30 113 3.2 16.1 0.00 0.00 0.00 36 1017.0
20260906193351 30 340 1.6 11.3 0.00 0.00 0.00 37 1017.1
20260906191840 30 326 3.2 11.3 0.00 0.00 0.00 40 1017.3
20260906190412 29 57 4.8 14.5 0.00 0.00 0.00 37 1017.6
20260906184828 28 60 1.6 12.9 0.00 0.00 0.00 42 1018.1
20260906183342 28 28 3.2 11.3 0.00 0.00 0.00 46 1018.4
20260906181847 27 74 6.4 11.3 0.00 0.00 0.00 51 1018.7
20260906180332 26 93 3.2 14.5 0.00 0.00 0.00 54 1018.8
20260906174852 26 80 3.2 11.3 0.00 0.00 0.00 55 1019.3
20260906173326 25 46 4.8 8.0 0.00 0.00 0.00 58 1019.7
20260906171835 25 22 4.8 8.0 0.00 0.00 0.00 60 1019.8
20260906170350 24 108 3.2 6.4 0.00 0.00 0.00 62 1020.2
20260906164830 23 75 3.2 9.7 0.00 0.00 0.00 64 1020.4
20260906163354 22 280 1.6 6.4 0.00 0.00 0.00 65 1020.3
20260906161825 22 360 3.2 8.0 0.00 0.00 0.00 66 1020.4
20260906160329 22 317 3.2 9.7 0.00 0.00 0.00 68 1020.2
20260906154849 21 13 4.8 9.7 0.00 0.00 0.00 71 1020.3
20260906153326 20 292 4.8 9.7 0.00 0.00 0.00 72 1020.5
20260906151903 20 57 3.2 9.7 0.00 0.00 0.00 76 1020.4
20260906150341 19 355 4.8 9.7 0.00 0.00 0.00 76 1020.7
20260906144842 19 5 4.8 11.3 0.00 0.00 0.00 79 1020.4
20260906143344 18 285 4.8 8.0 0.00 0.00 0.00 79 1020.6
20260906141839 18 24 6.4 8.0 0.00 0.00 0.00 79 1020.6
20260906140329 17 331 8.0 11.3 0.00 0.00 0.00 80 1020.4
20260906134854 16 332 4.8 8.0 0.00 0.00 0.00 84 1020.4
20260906133329 16 298 0.0 0.0 0.00 0.00 0.00 81 1020.3
20260906131839 16 236 0.0 3.2 0.00 0.00 0.00 79 1020.3
20260906130404 15 225 0.0 3.2 0.00 0.00 0.00 81 1020.1
20260906124829 15 212 1.6 4.8 0.00 0.00 0.00 83 1020.0
20260906123329 15 253 0.0 0.0 0.00 0.00 0.00 84 1019.9
20260906121831 15 283 0.0 0.0 0.00 0.00 0.00 84 1019.9
20260906120354 15 283 0.0 0.0 0.00 0.00 0.00 83 1019.9
20260906114830 15 283 0.0 0.0 0.00 0.00 0.00 82 1019.9
20260906113341 15 283 0.0 0.0 0.00 0.00 0.00 81 1019.9
20260906111848 15 283 0.0 0.0 0.00 0.00 0.00 80 1019.9
20260906110347 16 283 0.0 0.0 0.00 0.00 0.00 79 1019.6
20260906104821 16 331 0.0 0.0 0.00 0.00 0.00 80 1019.7
20260906103403 16 327 0.0 0.0 0.00 0.00 0.00 77 1019.6
20260906101836 16 355 0.0 0.0 0.00 0.00 0.00 78 1019.7
20260906100324 16 355 0.0 0.0 0.00 0.00 0.00 80 1019.5
20260906094836 17 355 3.2 3.2 0.00 0.00 0.00 80 1019.5
20260906093329 17 360 1.6 3.2 0.00 0.00 0.00 78 1019.6
20260906091825 17 9 0.0 0.0 0.00 0.00 0.00 74 1019.5
20260906090351 17 344 0.0 3.2 0.00 0.00 0.00 73 1019.1
20260906084906 18 9 0.0 4.8 0.00 0.00 0.00 69 1019.0
20260906083332 18 360 3.2 6.4 0.00 0.00 0.00 65 1018.8
20260906081834 18 57 1.6 8.0 0.00 0.00 0.00 62 1018.9
20260906080329 18 26 4.8 9.7 0.00 0.00 0.00 61 1018.8
20260906074839 18 342 0.0 0.0 0.00 0.00 0.00 64 1018.7
20260906073418 18 337 0.0 3.2 0.00 0.00 0.00 64 1018.8
20260906071830 18 9 0.0 0.0 0.00 0.00 0.00 64 1018.9
20260906070402 18 16 0.0 0.0 0.00 0.00 0.00 63 1018.8
20260906064836 19 240 0.0 1.6 0.00 0.00 0.00 56 1018.9
20260906063325 20 279 3.2 6.4 0.00 0.00 0.00 58 1019.0
20260906061850 21 65 0.0 0.0 0.00 0.00 0.00 55 1019.0
20260906060335 21 65 0.0 4.8 0.00 0.00 0.00 54 1018.5
20260906054844 22 32 3.2 4.8 0.00 0.00 0.00 50 1018.7
20260906053343 22 183 3.2 8.0 0.00 0.00 0.00 50 1019.2
20260906051830 23 194 3.2 6.4 0.00 0.00 0.00 47 1019.4
20260906050354 22 173 4.8 9.7 0.00 0.00 0.00 42 1019.7
20260906044824 21 242 0.0 0.0 0.00 0.00 0.00 44 1019.2
20260906043327 21 216 8.0 9.7 0.00 0.00 0.00 44 1018.7
20260906041832 21 221 6.4 8.0 0.00 0.00 0.00 43 1018.6
20260906040326 21 80 0.0 3.2 0.00 0.00 0.00 47 1018.3
20260906034850 21 80 1.6 3.2 0.00 0.00 0.00 46 1017.9
20260906033350 22 75 0.0 4.8 0.00 0.00 0.00 44 1017.9
20260906031852 22 207 1.6 8.0 0.00 0.00 0.00 41 1017.9
20260906030347 22 21 0.0 6.4 0.00 0.00 0.00 47 1017.5
20260906024829 23 58 1.6 3.2 0.00 0.00 0.00 41 1017.1
20260906023335 23 62 1.6 3.2 0.00 0.00 0.00 39 1017.0
20260906021903 25 55 0.0 3.2 0.00 0.00 0.00 37 1017.0
20260906020329 26 49 1.6 3.2 0.00 0.00 0.00 34 1017.0
20260906014843 27 331 0.0 6.4 0.00 0.00 0.00 31 1016.8
20260906013330 27 288 4.8 14.5 0.00 0.00 0.00 30 1016.6
20260906011841 28 341 8.0 14.5 0.00 0.00 0.00 29 1016.6
20260906010328 28 302 1.6 14.5 0.00 0.00 0.00 28 1016.5
20260906004828 29 311 8.0 19.3 0.00 0.00 0.00 27 1016.6
20260906003353 30 312 8.0 14.5 0.00 0.00 0.00 26 1016.6
20260906001828 30 278 9.7 14.5 0.00 0.00 0.00 25 1016.5
20260906000357 31 326 4.8 8.0 0.00 0.00 0.00 24 1016.4
20260905234845 31 331 6.4 12.9 0.00 0.00 0.00 23 1016.4
20260905233329 32 335 4.8 11.3 0.00 0.00 0.00 22 1016.3
20260905231849 33 280 6.4 9.7 0.00 0.00 0.00 21 1016.2
20260905230343 32 360 1.6 9.7 0.00 0.00 0.00 21 1016.1
20260905224852 33 13 3.2 8.0 0.00 0.00 0.00 20 1016.0
20260905223331 33 48 3.2 16.1 0.00 0.00 0.00 20 1016.0